Location: Bailleul
(50.3375°N, 2.8513°E)
Time: 08:53:44
(UTC+00:00)

Cosmos 2016 Rocket - Pass Details

Date: 27 October 2021
Orbit: 946 x 1001 km, 83.0° (Epoch: 29 November)

Event Time Altitude Azimuth Distance (km) Brightness Sun altitude
Rises 20:27:18 0° 216° (SW) 3,650 7.1 -37.1°
Reaches altitude 10° 20:30:02 10° 224° (SW) 2,699 6.4 -37.5°
Enters shadow 20:30:57 14° 229° (SW) 2,398 6.2 -37.7°
Exits shadow 20:34:38 34° 269° (W) 1,527 5.3 -38.2°
Maximum altitude 20:35:40 36° 290° (WNW) 1,467 5.2 -38.3°
Drops below altitude 10° 20:41:18 10° 357° (N) 2,688 6.6 -39.1°
Sets 20:44:01 0° 6° (N) 3,634 7.3 -39.5°
